Retour au catalogue

STARLINK-31156

ActifCommunicationsVLEO
NORAD 58743·PAYLOAD·🇺🇸 United States

Lancé Jan 7, 2024 depuis Cape Canaveral Space Force Station

Loading…

Prochains Passages (prochaines 24 heures)

TLE

FraisSource: CelesTrak SupGP

Époque: Sep 15, 2026, 03:25 UTC

1 58743C 24005R   26258.14284722 -.00035035  00000+0 -12692-2 0  2588
2 58743  43.0022 229.7261 0001247 269.4491 296.7501 15.27589626    10

Suivez STARLINK-31156 en temps réel avec AllMySat

Download on the App Store